This is the latest recevied weather packets stored in our database for station/object DG3OBU-6. If no packets are shown the sender has not sent any weather packets the latest 10 day(s).
| Time | Temp. | Humidity | Pressure | Rain* | Wind** | Luminosity | Snow |
|---|---|---|---|---|---|---|---|
| 1777776603 | 10.56° C | 86% | 1011.5 hPa | 0 mm | - | - | - |
| 1777776302 | 10° C | 86% | 1011.5 hPa | 0 mm | - | - | - |
| 1777776002 | 10° C | 86% | 1011.5 hPa | 0 mm | - | - | - |
| 1777775702 | 10° C | 85% | 1011.5 hPa | 0 mm | - | - | - |
| 1777775402 | 10° C | 85% | 1011.7 hPa | 0 mm | - | - | - |
| 1777775102 | 10.56° C | 85% | 1011.7 hPa | 0 mm | - | - | - |
| 1777774803 | 10.56° C | 85% | 1011.6 hPa | 0 mm | - | - | - |
| 1777774503 | 11.11° C | 85% | 1011.7 hPa | 0 mm | - | - | - |
| 1777774203 | 11.11° C | 85% | 1011.8 hPa | 0 mm | - | - | - |
| 1777773903 | 11.11° C | 85% | 1011.9 hPa | 0 mm | - | - | - |
| 1777773603 | 10.56° C | 85% | 1012 hPa | 0 mm | - | - | - |
| 1777773302 | 10.56° C | 84% | 1012 hPa | 0 mm | - | - | - |
| 1777773002 | 11.11° C | 84% | 1012.1 hPa | 0 mm | - | - | - |
| 1777772702 | 11.11° C | 84% | 1012.1 hPa | 0 mm | - | - | - |
| 1777772402 | 11.67° C | 84% | 1012.1 hPa | 0 mm | - | - | - |
| 1777772102 | 11.67° C | 84% | 1012.2 hPa | 0 mm | - | - | - |
| 1777771502 | 12.22° C | 83% | 1012.4 hPa | 0 mm | - | - | - |
| 1777771202 | 12.22° C | 83% | 1012.4 hPa | 0 mm | - | - | - |
| 1777770902 | 12.78° C | 83% | 1012.5 hPa | 0 mm | - | - | - |
| 1777770602 | 12.78° C | 83% | 1012.5 hPa | 0 mm | - | - | - |
| 1777770003 | 13.33° C | 82% | 1012.4 hPa | 0 mm | - | - | - |
| 1777769702 | 13.89° C | 82% | 1012.5 hPa | 0 mm | - | - | - |
| 1777769402 | 13.89° C | 82% | 1012.5 hPa | 0 mm | - | - | - |
| 1777769102 | 13.89° C | 81% | 1012.5 hPa | 0 mm | - | - | - |
| 1777768802 | 13.89° C | 80% | 1012.4 hPa | 0 mm | - | - | - |
* Rain latest hour (hover to see other rain measurements)
** Current wind speed in m/s (hover to see current wind gust speed)